Regional Weather Roundup
Issued by NWS Charleston, SC

Current Version | Previous Version | Graphics & Text | Print | Product List | Glossary Off
Versions: 1 2 3 4 5 6 7 8 9 10 11 12 13 14 15 16 17 18 19 20 21 22 23 24 25 26 27 28 29 30 31 32 33 34 35 36 37 38 39 40 41 42 43 44 45 46 47 48 49 50

000
ASUS42 KCHS 291127
RWRCHS

REGIONAL WEATHER ROUNDUP
NATIONAL WEATHER SERVICE CHARLESTON SC
700 AM EDT MON MAY 29 2017

NOTE: "FAIR" INDICATES FEW OR NO CLOUDS BELOW 12,000 FEET WITH NO
SIGNIFICANT WEATHER AND/OR OBSTRUCTIONS TO VISIBILITY.

NOT ALL STATIONS ARE QUALITY CONTROLLED. USE DATA WITH CAUTION...
ESPECIALLY DEWPOINT OBSERVATIONS.

SCZ027-030-031-034>040-042>050-291200-
...SOUTHEAST SOUTH CAROLINA...

CITY           SKY/WX    TMP DP  RH WIND       PRES   REMARKS
N CHARLESTON   PTCLDY    74  67  78 NW10      29.95R
WATERFRONT PRK   N/A     76  70  81 NW6G15    29.92R
JOHNS ISLAND   FAIR      75  70  83 W10       29.96R
PINOPOLIS        N/A     73  72  94 W7        29.87R
MONCKS CORNER  FAIR      72  68  88 CALM      29.96R
SUMMERVILLE    FAIR      72  68  88 W3        29.97R
BEAUFORT MCAS  CLEAR     75  70  84 W7        29.97R
BEAUFORT ARPT  FAIR      75  70  83 W7        29.97R
HILTON HEAD IS CLEAR     75  70  83 W7        29.98R
WALTERBORO     MOSUNNY   73  68  83 W6        29.98R
ALLENDALE      FAIR      72  68  88 CALM      29.96S

...SOUTHERN MIDLANDS AND PEE DEE...

CITY           SKY/WX    TMP DP  RH WIND       PRES   REMARKS
GEORGETOWN     FAIR      72  72 100 W3        29.96R
KINGSTREE      FAIR      70  66  88 CALM      29.95R
ORANGEBURG     CLEAR     70  68  93 CALM      29.96R
BARNWELL       FAIR      72  70  94 CALM      29.97S
AIKEN          FAIR      68  64  88 W5        30.00S
MANNING        FAIR      70  70 100 SW6       29.96R
COLUMBIA       PTCLDY    70  66  87 CALM      29.95R
SUMTER         CLEAR     70  66  88 W6        29.93R
FLORENCE       CLEAR     69  69 100 W3        29.94R
MYRTLE BEACH   CLEAR     73  70  88 W9        29.94
N MYRTLE BEACH CLEAR     72  71  97 W3        29.93R

$$

GAZ063-065-086>088-099>101-113>116-118-119-134>141-150-291200-
...SOUTHEAST GEORGIA...

CITY           SKY/WX    TMP DP  RH WIND       PRES   REMARKS
SAVANNAH ARPT  MOCLDY    72  67  84 W5        29.99R
HUNTER AAF     PTCLDY    73  73 100 CALM      29.96R
FORT STEWART   PTCLDY    73  69  85 W6        29.97R
STATESBORO     PTCLDY    75  73  92 NW5       29.98S
SYLVANIA       SUNNY     73  71  92 CALM      29.99S
CLAXTON        FAIR     N/A N/A N/A CALM      29.98F

...CSRA...CENTRAL AND FAR SOUTHEAST GEORGIA...

CITY           SKY/WX    TMP DP  RH WIND       PRES   REMARKS
THOMSON        PTCLDY    68  65  92 CALM      30.02F
AUGUSTA-BUSH   PTCLDY    72  67  84 W6        29.97R
AUGUSTA-DANIEL PTCLDY    73  63  70 W6        29.98R
SWAINSBORO     FAIR      72  70  94 W3        29.99F
VIDALIA        PTCLDY    73  70  88 W6        29.99S
EASTMAN        FAIR      73  71  92 CALM      30.02S
HAZLEHURST     FAIR      74  74 100 CALM      29.99R
ALMA           PTCLDY    72  70  93 CALM      29.99R
WAYCROSS       MOCLDY    76  76 100 SW5       30.00S
JESUP          FAIR      73  70  88 CALM      30.00S
BAXLEY         FAIR      73  73 100 CALM      30.00S
BRUNSWICK      CLEAR     77  73  88 W6        30.01R
SAINT SIMONS   CLEAR     77  74  90 W9        29.99R

$$

SCZ027-028-034-036>038-045-046-048>050-GAZ119-141-291200-
...LAKE AND SUPPLEMENTAL COASTAL OBSERVATIONS...

STATION/POSITION TIME  TEMP    WIND        PRES    WAVE   SWELL
                       AIR SEA DIR/SP/G            HT/PER HT/PER/DIR
                 (UTC) (F)     (DEG/KT/KT) (MB)    (FT/S) (FT/S/D)
WINYAH BAY       1030   74     280/  5     1013.0R
LAKE MURRAY      1050   71     260/  4/  6 1013.5R
ACE BASIN NERRS  1030   75     270/  2     1014.0R
FORT PULASKI     1100   76     290/ 10/ 12 1015.5
SAPELO ISLAND    1100   76     250/  6     1016.0

$$

ANZ835-935-AMZ111-154-330-350-352-354-370-450-454-472-291200-
...C-MAN AND BUOY OBSERVATIONS...

STATION/POSITION TIME  TEMP    WIND        PRES    WAVE   SWELL
                       AIR SEA DIR/SP/G            HT/PER HT/PER/DIR
                 (UTC) (F)     (DEG/KT/KT) (MB)    (FT/S) (FT/S/D)
BUOY 41004       1110   77 76  270/ 10/ 12 1014.3
BUOY 41008       1050   78 78  260/ 14/ 17 1014.9R   2/ 4   2/ 90/ 7
FOLLY BEACH CMAN 1100   75     290/  6/ 10 1014.9R
CAPERS NEARSHORE 1108   80 77  310/ 12/ 17 1013.8R
FRIPP NEARSHORE  1108   77 78  300/ 12/ 16 1014.5R


STATION/POSITION TIME  TEMP    WIND        PRES    WAVE   SWELL
                       AIR SEA DIR/SP/G            HT/PER HT/PER/DIR
                 (UTC) (F)     (DEG/KT/KT) (MB)    (FT/S) (FT/S/D)
5E ST. MARYS GA  1100      79                N/A     2/ 4
FRYING PAN BUOY  1110   76 75  260/ 10/ 12 1013.3
BUOY 41025       1050   75 76  270/ 16/ 17 1010.8R   5/ 6   2/170/10
CAPE LOOKOUT NC  1100   74     280/ 12/ 14 1012.0R
BUOY 41002       1050   77 76  220/ 16/ 19 1014.7R   4/ 5
BUOY 41010       1110   80 80  240/  6/  8 1016.9
ST AUGUSTINE FL  1100   75 77  260/  5/  6 1017.5R


$$




USA.gov is the U.S. government's official web portal to all federal, state and local government web resources and services.